Flag for U.S.A. Weather past 2 weeks in Corpus Christi, Texas, U.S.A.

Now
86 °F

Broken clouds.


Feels Like: 93 °F
Forecast: 81 / 90 °F
Wind: 20 mph from Southeast

Location: Corpus Christi International Airport

Current Time: Sep 2, 2014 at 7:32:56 PM

Latest Report: Sep 2, 2014 at 6:51 PM


Visibility: 10 mi

Pressure: 29.88 "Hg

Humidity: 65%

Dew point: 73 °F

Location of Corpus ChristiLocation

Historic Weather in Corpus Christi — Graph

°F

Corpus Christi temperature yesterday

Maximum temperature yesterday: 91 °F (at 3:51 PM)
Minimum temperature yesterday: 78 °F (at 4:51 AM)
Average temperature yesterday: 84 °F

Past Weeks' High & Low Weather Summary

 TemperatureHumidityPressure
High97 °F (Aug 22, 1:51 PM)97% (Sep 1, 7:51 AM)30.04 "Hg (Sep 1, 7:51 AM)
Low74 °F (Aug 23, 5:51 AM)35% (Aug 22, 1:51 PM)29.78 "Hg (Aug 29, 5:51 PM)
Average85 °F74%29.91 "Hg
* Reported Aug 18 5:51 PM — Sep 2 5:51 PM, Corpus Christi, Weather by CustomWeather, © 2014

Note: Actual official high and low records may vary slightly from our data, if they occured in-between our weather recording intervals... More about our weather records

Advertising

Corpus Christi weather history for previous 24 hours

 ConditionsComfort  
Time TempWeatherWind HumidityBarometerVisibility
5:51 PM
Sep 2
86 °FBroken clouds.20 mph67%29.87 "Hg10 mi
4:51 PM85 °FBroken clouds.25 mph68%29.88 "Hg10 mi
3:51 PM89 °FBroken clouds.18 mph63%29.88 "Hg10 mi
2:51 PM90 °FBroken clouds.21 mph59%29.89 "Hg10 mi
1:51 PM90 °FScattered clouds.22 mph59%29.90 "Hg10 mi
12:51 PM89 °FBroken clouds.20 mph61%29.92 "Hg10 mi
11:51 AM89 °FScattered clouds.17 mph65%29.92 "Hg10 mi
10:51 AM85 °FBroken clouds.10 mph80%29.93 "Hg10 mi
9:51 AM87 °FScattered clouds.14 mph72%29.92 "Hg10 mi
8:51 AM85 °FPassing clouds.12 mph77%29.91 "Hg10 mi
7:51 AM80 °FPassing clouds.6 mph90%29.90 "Hg10 mi
6:51 AM79 °FPassing clouds.5 mph90%29.89 "Hg10 mi
5:51 AM79 °FPassing clouds.6 mph90%29.88 "Hg10 mi
4:51 AM80 °FPassing clouds.7 mph90%29.87 "Hg10 mi
3:51 AM81 °FPassing clouds.8 mph88%29.87 "Hg10 mi
2:51 AM81 °FPassing clouds.7 mph88%29.88 "Hg10 mi
1:51 AM82 °FPassing clouds.10 mph85%29.88 "Hg10 mi
12:51 AM82 °FPassing clouds.10 mph85%29.89 "Hg10 mi
11:51 PM
Sep 1
82 °FPassing clouds.12 mph85%29.91 "Hg10 mi
10:51 PM83 °FPassing clouds.12 mph82%29.90 "Hg10 mi
9:51 PM83 °FPassing clouds.12 mph82%29.89 "Hg10 mi
8:51 PM83 °FPassing clouds.13 mph82%29.88 "Hg10 mi
7:51 PM85 °FScattered clouds.15 mph75%29.86 "Hg10 mi
Weather by CustomWeather, © 2014

See weather overviewHow to use our weather pages